Location: Rodanthe
(35.5920°N, 75.4670°W)
Time: 07:51:11
(UTC-04:00)

ISS - All Passes

Search period start: 01 August 2014 00:00
Search period end: 11 August 2014 00:00
Orbit: 411 x 419 km, 51.6° (Epoch: 01 August)

Date Brightness Start Highest point End Pass type
(mag) Time Alt. Az. Time Alt. Az. Time Alt. Az.
01 Aug - 04:34:48 10° NNW 04:37:22 20° NNE 04:39:56 10° E visible
01 Aug - 06:11:01 10° WNW 06:14:13 42° SW 06:17:23 10° SSE daylight
01 Aug - 21:14:58 10° S 21:17:44 25° SE 21:20:31 10° ENE visible
01 Aug - 22:51:27 10° W 22:54:22 28° NW 22:57:18 10° NNE visible
02 Aug - 03:46:30 10° N 03:48:19 14° NNE 03:50:07 10° ENE visible
02 Aug - 05:22:03 10° NW 05:25:25 86° SW 05:28:46 10° SE visible
02 Aug - 20:27:23 10° SSE 20:29:03 13° SE 20:30:44 10° E visible
02 Aug - 22:02:13 10° WSW 22:05:26 48° NW 22:08:41 10° NE visible
03 Aug - 04:33:17 10° NW 04:36:33 49° NE 04:39:49 10° ESE visible
03 Aug - 06:11:14 10° W 06:12:56 13° SW 06:14:38 10° SSW daylight
03 Aug - 21:13:15 10° SW 21:16:34 87° SE 21:19:54 10° NE visible
03 Aug - 22:51:56 10° WNW 22:53:41 14° NNW 22:55:26 10° N visible
04 Aug - 03:44:39 10° NNW 03:47:37 28° NE 03:50:34 10° E visible
04 Aug - 05:21:26 10° WNW 05:24:15 25° SW 05:27:03 10° S visible
04 Aug - 20:24:37 10° SSW 20:27:45 42° SE 20:30:56 10° ENE visible
04 Aug - 22:02:05 10° W 22:04:36 20° NNW 22:07:08 10° NNE visible
05 Aug - 02:56:09 10° NNW 02:58:35 18° NNE 03:01:01 10° ENE night (unlit)
05 Aug - 04:32:14 10° WNW 04:35:29 48° SW 04:38:43 10° SSE visible
05 Aug - 19:36:23 10° S 19:39:00 22° SE 19:41:38 10° ENE daylight
05 Aug - 21:12:35 10° W 21:15:35 31° NW 21:18:36 10° NNE visible
06 Aug - 02:07:54 10° N 02:09:29 13° NNE 02:11:05 10° NE night (unlit)
06 Aug - 03:43:17 10° NW 03:46:39 83° NE 03:50:00 10° SE night (unlit)
06 Aug - 18:49:06 10° SSE 18:50:19 12° SE 18:51:31 10° ESE daylight
06 Aug - 20:23:23 10° WSW 20:26:38 55° NW 20:29:55 10° NE visible
06 Aug - 22:03:26 10° NNW 22:03:57 10° NNW 22:04:29 10° NNW visible
07 Aug - 02:54:31 10° NW 02:57:44 43° NE 03:00:57 10° ESE night (unlit)
07 Aug - 04:32:08 10° W 04:34:10 15° SW 04:36:11 10° SSW night (unlit)
07 Aug - 19:34:27 10° SW 19:37:45 75° SE 19:41:04 10° NE daylight
07 Aug - 21:12:52 10° WNW 21:14:48 14° NNW 21:16:44 10° N visible
08 Aug - 02:05:53 10° NNW 02:08:45 26° NNE 02:11:37 10° E night (unlit)
08 Aug - 03:42:30 10° WNW 03:45:26 28° SW 03:48:21 10° SSE night (unlit)
08 Aug - 18:45:51 10° SSW 18:48:55 36° SE 18:52:00 10° ENE daylight
08 Aug - 20:23:05 10° W 20:25:42 21° NNW 20:28:20 10° NNE visible
09 Aug - 01:17:23 10° NNW 01:19:41 17° NNE 01:21:58 10° ENE night (unlit)
09 Aug - 02:53:20 10° NW 02:56:37 56° SW 02:59:54 10° SE night (unlit)
09 Aug - 17:57:43 10° S 18:00:09 19° SE 18:02:35 10° E daylight
09 Aug - 19:33:37 10° WSW 19:36:40 34° NW 19:39:45 10° NNE daylight
10 Aug - 00:29:12 10° N 00:30:32 12° NNE 00:31:51 10° NE visible
10 Aug - 02:04:24 10° NW 02:07:45 72° NE 02:11:05 10° SE night (unlit)
10 Aug - 18:44:25 10° WSW 18:47:42 63° NW 18:51:00 10° NE daylight
10 Aug - 20:23:59 10° NW 20:24:58 11° NNW 20:25:57 10° N visible
